Weather History for Galax, VA

Change the Weather History Date:

Sunday, February 10, 2013

  Actual Average (KBLF) Record (KBLF)
Temperature  
Mean Temperature 40 °F 36 °F  
Max Temperature 48 °F 45 °F 67 °F (2009)
Min Temperature 32 °F 28 °F 0 °F (1979)
Degree Days  
Heating Degree Days 25 29  
Month to date heating degree days 294  
Since 1 July heating degree days 3014  
Cooling Degree Days 0 0  
Month to date cooling degree days 0  
Year to date cooling degree days 0  
Moisture  
Dew Point 19 °F    
Average Humidity 44    
Maximum Humidity 93    
Minimum Humidity 30    
Precipitation  
Precipitation 0.08 in 0.09 in 1.12 in (1990)
Month to date precipitation 0.95  
Year to date precipitation 3.85  
Snow  
Snow 0.00 in - - ()
Month to date snowfall  
Since 1 July snowfall  
Snow Depth -    
Sea Level Pressure  
Sea Level Pressure 30.28 in    
Wind  
Wind Speed 7 mph (South)    
Max Wind Speed 15 mph    
Max Gust Speed 24 mph    
Visibility 10 miles    
Events Rain    
T = Trace of Precipitation, MM = Missing Value Source: NWS Daily Summary

Daily Weather History Graph

Daily Weather History Graph

Search for Another Location

Airport:

Trip Planner

Search our weather history database for the weather conditions in past years. The results will help you decide how hot, cold, wet, or windy it might be!

Date:

Astronomy

Feb. 10, 2013 Rise Set
Actual Time 7:16 AM EST 5:58 PM EST
Civil Twilight 6:50 AM EST 6:25 PM EST
Nautical Twilight 6:19 AM EST 6:56 PM EST
Astronomical Twilight 5:49 AM EST 7:26 PM EST
Moon 7:07 AM EST (2/10) 6:45 PM EST (2/10)
Length of Visible Light 11h 35m
Length of Day
10h 42m
New Moon, 0% of the Moon is Illuminated
Feb 10
New Moon
Feb 17
First Quarter
Feb 25
Full
Mar 4
Last Quarter
Mar 11
New

Hourly Weather History & Observations

Time (EST) Temp. Windchill Dew Point Humidity Pressure Visibility Wind Dir Wind Speed Gust Speed Precip Events Conditions
12:15 AM 35.6 °F 31.7 °F 15.8 °F 44% 30.31 in 10.0 mi SSW 4.6 mph - N/A   Clear
12:35 AM 32.0 °F 26.4 °F 17.6 °F 55% 30.30 in 10.0 mi South 5.8 mph - N/A   Clear
12:55 AM 35.6 °F 32.8 °F 15.8 °F 44% 30.30 in 10.0 mi South 3.5 mph - N/A   Clear
1:15 AM 33.8 °F 28.6 °F 15.8 °F 48% 30.31 in 10.0 mi South 5.8 mph - N/A   Clear
1:35 AM 37.4 °F 32.8 °F 14.0 °F 38% 30.31 in 10.0 mi South 5.8 mph - N/A   Clear
1:55 AM 37.4 °F 32.8 °F 12.2 °F 36% 30.31 in 10.0 mi South 5.8 mph - N/A   Clear
2:15 AM 35.6 °F 31.7 °F 12.2 °F 38% 30.31 in 10.0 mi South 4.6 mph - N/A   Clear
2:35 AM 35.6 °F 28.6 °F 12.2 °F 38% 30.31 in 10.0 mi South 9.2 mph - N/A   Clear
2:55 AM 35.6 °F 30.7 °F 12.2 °F 38% 30.31 in 10.0 mi South 5.8 mph - N/A   Clear
3:15 AM 35.6 °F 30.7 °F 12.2 °F 38% 30.31 in 10.0 mi South 5.8 mph - N/A   Clear
3:35 AM 35.6 °F 29.9 °F 10.4 °F 35% 30.32 in 10.0 mi South 6.9 mph - N/A   Clear
3:55 AM 35.6 °F 29.2 °F 12.2 °F 38% 30.31 in 10.0 mi SSE 8.1 mph - N/A   Clear
4:15 AM 37.4 °F 32.8 °F 10.4 °F 33% 30.31 in 10.0 mi SSE 5.8 mph - N/A   Clear
4:35 AM 35.6 °F 30.7 °F 10.4 °F 35% 30.31 in 10.0 mi South 5.8 mph - N/A   Clear
4:55 AM 37.4 °F 32.1 °F 12.2 °F 36% 30.31 in 10.0 mi South 6.9 mph - N/A   Clear
5:15 AM 35.6 °F 30.7 °F 12.2 °F 38% 30.32 in 10.0 mi South 5.8 mph - N/A   Clear
5:35 AM 35.6 °F 32.8 °F 12.2 °F 38% 30.32 in 10.0 mi SSE 3.5 mph - N/A   Clear
5:55 AM 37.4 °F - 12.2 °F 36% 30.32 in 10.0 mi Calm Calm - N/A   Clear
6:15 AM 37.4 °F 32.8 °F 12.2 °F 36% 30.33 in 10.0 mi South 5.8 mph - N/A   Clear
6:35 AM 37.4 °F 30.8 °F 12.2 °F 36% 30.33 in 10.0 mi South 9.2 mph - N/A   Clear
6:55 AM 37.4 °F 30.8 °F 12.2 °F 36% 30.34 in 10.0 mi South 9.2 mph - N/A   Clear
7:15 AM 37.4 °F 32.1 °F 12.2 °F 36% 30.36 in 10.0 mi South 6.9 mph - N/A   Clear
7:35 AM 37.4 °F 32.1 °F 14.0 °F 38% 30.36 in 10.0 mi South 6.9 mph - N/A   Clear
7:55 AM 37.4 °F 30.8 °F 14.0 °F 38% 30.37 in 10.0 mi South 9.2 mph - N/A   Clear
8:15 AM 37.4 °F 32.8 °F 14.0 °F 38% 30.38 in 10.0 mi SSE 5.8 mph - N/A   Scattered Clouds
8:35 AM 37.4 °F 32.8 °F 15.8 °F 41% 30.37 in 10.0 mi SSE 5.8 mph - N/A   Scattered Clouds
8:55 AM 37.4 °F 32.1 °F 15.8 °F 41% 30.36 in 10.0 mi SSE 6.9 mph - N/A   Clear
9:15 AM 39.2 °F 33.6 °F 15.8 °F 39% 30.36 in 10.0 mi South 8.1 mph - N/A   Clear
9:35 AM 39.2 °F 33.0 °F 14.0 °F 36% 30.36 in 10.0 mi South 9.2 mph - N/A   Clear
9:55 AM 39.2 °F 32.5 °F 14.0 °F 36% 30.38 in 10.0 mi South 10.4 mph 16.1 mph N/A   Clear
10:15 AM 41.0 °F 34.3 °F 15.8 °F 36% 30.36 in 10.0 mi SSE 11.5 mph 16.1 mph N/A   Clear
10:35 AM 41.0 °F 34.3 °F 14.0 °F 33% 30.36 in 10.0 mi South 11.5 mph 18.4 mph N/A   Clear
10:55 AM 42.8 °F 38.0 °F 15.8 °F 34% 30.36 in 10.0 mi SSE 8.1 mph 20.7 mph N/A   Clear
11:15 AM 44.6 °F 41.4 °F 15.8 °F 31% 30.36 in 10.0 mi SSE 5.8 mph 17.3 mph N/A   Clear
11:35 AM 44.6 °F 39.7 °F 17.6 °F 34% 30.35 in 10.0 mi SE 9.2 mph - N/A   Clear
11:55 AM 44.6 °F 40.7 °F 17.6 °F 34% 30.33 in 10.0 mi SSE 6.9 mph 16.1 mph N/A   Clear
12:15 PM 46.4 °F 41.9 °F 17.6 °F 32% 30.32 in 10.0 mi SSE 9.2 mph 16.1 mph N/A   Clear
12:35 PM 46.4 °F 41.9 °F 17.6 °F 32% 30.31 in 10.0 mi South 9.2 mph 16.1 mph N/A   Clear
12:55 PM 46.4 °F 41.1 °F 17.6 °F 32% 30.30 in 10.0 mi SSE 11.5 mph 18.4 mph N/A   Clear
1:15 PM 46.4 °F 40.7 °F 17.6 °F 32% 30.29 in 10.0 mi South 12.7 mph 21.9 mph N/A   Clear
1:35 PM 48.2 °F - 19.4 °F 32% 30.28 in 10.0 mi SSE 5.8 mph 16.1 mph N/A   Clear
1:55 PM 48.2 °F - 19.4 °F 32% 30.26 in 10.0 mi South 10.4 mph 19.6 mph N/A   Clear
2:15 PM 48.2 °F - 19.4 °F 32% 30.25 in 10.0 mi SSE 9.2 mph 17.3 mph N/A   Clear
2:35 PM 48.2 °F - 17.6 °F 30% 30.22 in 10.0 mi South 10.4 mph 24.2 mph N/A   Scattered Clouds
2:55 PM 48.2 °F - 17.6 °F 30% 30.24 in 10.0 mi South 13.8 mph 23.0 mph N/A   Clear
3:15 PM 48.2 °F - 17.6 °F 30% 30.24 in 10.0 mi South 12.7 mph 19.6 mph N/A   Clear
3:35 PM 48.2 °F - 17.6 °F 30% 30.25 in 10.0 mi South 11.5 mph 20.7 mph N/A   Clear
3:55 PM 46.4 °F 40.4 °F 17.6 °F 32% 30.24 in 10.0 mi SSE 13.8 mph 23.0 mph N/A   Scattered Clouds
4:15 PM 46.4 °F 40.7 °F 17.6 °F 32% 30.22 in 10.0 mi South 12.7 mph 20.7 mph N/A   Scattered Clouds
4:35 PM 44.6 °F 39.2 °F 19.4 °F 37% 30.22 in 10.0 mi SSE 10.4 mph 18.4 mph N/A   Mostly Cloudy
4:55 PM 44.6 °F 40.2 °F 19.4 °F 37% 30.22 in 10.0 mi SSE 8.1 mph - N/A   Scattered Clouds
5:15 PM 44.6 °F 40.2 °F 19.4 °F 37% 30.21 in 10.0 mi SSE 8.1 mph 24.2 mph N/A   Scattered Clouds
5:35 PM 44.6 °F 40.2 °F 19.4 °F 37% 30.21 in 10.0 mi South 8.1 mph - N/A   Overcast
5:55 PM 44.6 °F 39.2 °F 19.4 °F 37% 30.22 in 10.0 mi South 10.4 mph 17.3 mph N/A   Mostly Cloudy
6:15 PM 44.6 °F 40.2 °F 17.6 °F 34% 30.23 in 10.0 mi South 8.1 mph - N/A   Scattered Clouds
6:35 PM 44.6 °F 40.2 °F 17.6 °F 34% 30.23 in 10.0 mi SSE 8.1 mph 17.3 mph N/A   Scattered Clouds
6:55 PM 44.6 °F 40.2 °F 17.6 °F 34% 30.23 in 10.0 mi South 8.1 mph 18.4 mph N/A   Clear
7:15 PM 44.6 °F 40.2 °F 17.6 °F 34% 30.24 in 10.0 mi South 8.1 mph - N/A   Clear
7:35 PM 44.6 °F 40.7 °F 17.6 °F 34% 30.24 in 10.0 mi South 6.9 mph - N/A   Mostly Cloudy
7:55 PM 44.6 °F 40.2 °F 19.4 °F 37% 30.25 in 10.0 mi South 8.1 mph - N/A Rain Light Rain
8:15 PM 39.2 °F 34.2 °F 30.2 °F 70% 30.24 in 4.0 mi South 6.9 mph 16.1 mph N/A   Scattered Clouds
8:35 PM 37.4 °F 31.4 °F 33.8 °F 87% 30.24 in 10.0 mi South 8.1 mph - 0.03 in   Overcast
8:55 PM 37.4 °F 30.8 °F 33.8 °F 87% 30.20 in 10.0 mi SSE 9.2 mph 16.1 mph 0.01 in   Overcast
9:15 PM 39.2 °F 32.5 °F 35.6 °F 87% 30.19 in 10.0 mi South 10.4 mph - 0.02 in   Mostly Cloudy
9:35 PM 39.2 °F 31.6 °F 35.6 °F 87% 30.17 in 10.0 mi South 12.7 mph 18.4 mph 0.04 in   Mostly Cloudy
9:55 PM 39.2 °F 30.8 °F 35.6 °F 87% 30.19 in 10.0 mi SSW 15.0 mph 20.7 mph N/A   Mostly Cloudy
10:15 PM 39.2 °F 32.5 °F 35.6 °F 87% 30.18 in 10.0 mi South 10.4 mph - 0.01 in   Overcast
10:35 PM 39.2 °F 33.0 °F 35.6 °F 87% 30.18 in 10.0 mi South 9.2 mph 17.3 mph 0.01 in   Overcast
10:55 PM 39.2 °F 34.2 °F 35.6 °F 87% 30.17 in 10.0 mi South 6.9 mph - N/A   Overcast
11:15 PM 39.2 °F 35.0 °F 35.6 °F 87% 30.16 in 7.0 mi South 5.8 mph - N/A   Overcast
11:35 PM 39.2 °F 35.9 °F 37.4 °F 93% 30.14 in 2.0 mi South 4.6 mph - N/A   Overcast
11:55 PM 39.2 °F 35.0 °F 37.4 °F 93% 30.13 in 2.0 mi South 5.8 mph - N/A   Overcast